Cakewalk — ZGAZ — position and weather

sailwx.info

Track history (hours):
 
Tides and Currents Weather Stations Pressure Air Temp Water Temp Dewpoint Dewpoint Depression Visibility Wind Speed Wind Dir Waves Ship Positions

Cakewalk

Last reported at 2014-Jul-20 16:07 UTC. Time now 2014-Jul-24 04:21 UTC.
Position N 40°18' E 014°28'.

Length 86 m; draft 4 m.

Type: Pleasure craft. MMSI: 319020300.

Date/timePositionNaut miles runAvg speedWind from/ knotsBaromVisibWave heightAir tempDewpointWater temp
2014-Jul-20 16:07N 40°18' E 014°28'1016.0
2014-Jul-20 15:30N 40°27' E 014°22'1415.2
2014-Jul-20 14:34N 40°41' E 014°16'9 8.1
2014-Jul-20 13:28N 40°49' E 014°14'0 0.0
2014-Jul-20 12:31N 40°49' E 014°14'0 0.0
2014-Jul-20 11:28N 40°49' E 014°14'0 0.0
2014-Jul-20 10:31N 40°49' E 014°14'0 0.0
2014-Jul-20 09:31N 40°49' E 014°14'0 0.0
2014-Jul-20 08:28N 40°49' E 014°14'0 0.0
2014-Jul-20 07:31N 40°49' E 014°14'0 0.0
2014-Jul-20 06:31N 40°49' E 014°14'0 0.0
2014-Jul-20 05:31N 40°49' E 014°14'0 0.0
2014-Jul-20 04:31N 40°49' E 014°14'0 0.0
2014-Jul-20 03:28N 40°49' E 014°14'0 0.0
2014-Jul-20 02:28N 40°49' E 014°14'0 0.0
2014-Jul-20 01:31N 40°49' E 014°14'0 0.0
2014-Jul-20 00:07N 40°49' E 014°14'0 0.0
2014-Jul-19 23:04N 40°49' E 014°14'0 0.1
2014-Jul-19 22:22N 40°49' E 014°14'1213.1
2014-Jul-19 21:26N 40°41' E 014°02'1415.5
2014-Jul-19 20:33N 40°40' E 013°44'1615.9
2014-Jul-19 19:32N 40°45' E 013°24'1616.1
2014-Jul-19 18:33N 40°53' E 013°05'5 2.7
2014-Jul-19 16:34N 40°55' E 012°59'0 0.0
2014-Jul-19 15:34N 40°55' E 012°59'0 0.0
2014-Jul-19 14:34N 40°55' E 012°59'0 0.0
2014-Jul-19 13:34N 40°55' E 012°59'0 0.0
2014-Jul-19 12:31N 40°55' E 012°59'0 0.0
2014-Jul-19 11:34N 40°55' E 012°59'0 0.0
2014-Jul-19 10:34N 40°55' E 012°59'0 0.0
2014-Jul-19 09:34N 40°55' E 012°59'0 0.0
2014-Jul-19 07:10N 40°55' E 012°59'0 0.0
2014-Jul-19 06:34N 40°55' E 012°59'0 0.0
2014-Jul-19 05:19N 40°55' E 012°59'0 0.0
2014-Jul-19 04:34N 40°55' E 012°59'0 0.0
2014-Jul-18 20:19N 40°55' E 012°59'0 0.0
2014-Jul-18 19:30N 40°55' E 012°59'0 0.0
2014-Jul-18 17:33N 40°55' E 012°59'0 0.0
2014-Jul-18 14:21N 40°55' E 012°59'0 0.0
2014-Jul-18 13:18N 40°55' E 012°59'0 0.0
2014-Jul-18 09:18N 40°55' E 012°59'0 0.0
2014-Jul-18 06:09N 40°55' E 012°59'0 0.0
2014-Jul-18 05:06N 40°55' E 012°59'0 0.0
2014-Jul-18 04:06N 40°55' E 012°59'0 0.0
2014-Jul-18 03:27N 40°55' E 012°59'0 0.0
2014-Jul-18 02:33N 40°55' E 012°59'0 0.0
2014-Jul-18 01:06N 40°55' E 012°59'17 3.7
2014-Jul-17 20:31N 40°47' E 013°19'1515.8
2014-Jul-17 19:33N 40°42' E 013°38'1616.0
2014-Jul-17 18:34N 40°38' E 013°58'1515.0
2014-Jul-17 17:33N 40°34' E 014°17'11 0.6
2014-Jul-16 23:29N 40°36' E 014°32'1414.8
2014-Jul-16 22:33N 40°34' E 014°14'0 0.1
2014-Jul-16 21:32N 40°34' E 014°14'0 0.0
2014-Jul-16 20:29N 40°34' E 014°14'0 0.0
2014-Jul-16 19:29N 40°34' E 014°14'0 0.0
2014-Jul-16 18:32N 40°34' E 014°14'2 0.7
2014-Jul-16 16:18N 40°32' E 014°14'0 0.0
2014-Jul-16 14:33N 40°32' E 014°14'6 0.2
2014-Jul-15 09:33N 40°33' E 014°22'7 0.9
2014-Jul-15 01:12N 40°37' E 014°30'0 0.0
2014-Jul-14 20:06N 40°37' E 014°30'0 0.0
2014-Jul-14 03:12N 40°37' E 014°30'5 8.2
2014-Jul-14 02:33N 40°32' E 014°32'135 3.3
2014-Jul-12 09:32N 38°24' E 015°30'12 9.1
2014-Jul-12 08:13N 38°14' E 015°37'8 7.9
2014-Jul-12 07:15N 38°06' E 015°36'  
Track history (hours):
 
Tides and Currents Weather Stations Pressure Air Temp Water Temp Dewpoint Dewpoint Depression Visibility Wind Speed Wind Dir Waves Ship Positions

Cakewalk

Last reported at 2014-Jul-20 16:07 UTC. Time now 2014-Jul-24 04:21 UTC.
Position N 40°18' E 014°28'.

Length 86 m; draft 4 m.

Type: Pleasure craft. MMSI: 319020300.

Date/timePositionNaut miles runAvg speedWind from/ knotsBaromVisibWave heightAir tempDewpointWater temp
2014-Jul-20 16:07N 40°18' E 014°28'1016.0
2014-Jul-20 15:30N 40°27' E 014°22'1415.2
2014-Jul-20 14:34N 40°41' E 014°16'9 8.1
2014-Jul-20 13:28N 40°49' E 014°14'0 0.0
2014-Jul-20 12:31N 40°49' E 014°14'0 0.0
2014-Jul-20 11:28N 40°49' E 014°14'0 0.0
2014-Jul-20 10:31N 40°49' E 014°14'0 0.0
2014-Jul-20 09:31N 40°49' E 014°14'0 0.0
2014-Jul-20 08:28N 40°49' E 014°14'0 0.0
2014-Jul-20 07:31N 40°49' E 014°14'0 0.0
2014-Jul-20 06:31N 40°49' E 014°14'0 0.0
2014-Jul-20 05:31N 40°49' E 014°14'0 0.0
2014-Jul-20 04:31N 40°49' E 014°14'0 0.0
2014-Jul-20 03:28N 40°49' E 014°14'0 0.0
2014-Jul-20 02:28N 40°49' E 014°14'0 0.0
2014-Jul-20 01:31N 40°49' E 014°14'0 0.0
2014-Jul-20 00:07N 40°49' E 014°14'0 0.0
2014-Jul-19 23:04N 40°49' E 014°14'0 0.1
2014-Jul-19 22:22N 40°49' E 014°14'1213.1
2014-Jul-19 21:26N 40°41' E 014°02'1415.5
2014-Jul-19 20:33N 40°40' E 013°44'1615.9
2014-Jul-19 19:32N 40°45' E 013°24'1616.1
2014-Jul-19 18:33N 40°53' E 013°05'5 2.7
2014-Jul-19 16:34N 40°55' E 012°59'0 0.0
2014-Jul-19 15:34N 40°55' E 012°59'0 0.0
2014-Jul-19 14:34N 40°55' E 012°59'0 0.0
2014-Jul-19 13:34N 40°55' E 012°59'0 0.0
2014-Jul-19 12:31N 40°55' E 012°59'0 0.0
2014-Jul-19 11:34N 40°55' E 012°59'0 0.0
2014-Jul-19 10:34N 40°55' E 012°59'0 0.0
2014-Jul-19 09:34N 40°55' E 012°59'0 0.0
2014-Jul-19 07:10N 40°55' E 012°59'0 0.0
2014-Jul-19 06:34N 40°55' E 012°59'0 0.0
2014-Jul-19 05:19N 40°55' E 012°59'0 0.0
2014-Jul-19 04:34N 40°55' E 012°59'0 0.0
2014-Jul-18 20:19N 40°55' E 012°59'0 0.0
2014-Jul-18 19:30N 40°55' E 012°59'0 0.0
2014-Jul-18 17:33N 40°55' E 012°59'0 0.0
2014-Jul-18 14:21N 40°55' E 012°59'0 0.0
2014-Jul-18 13:18N 40°55' E 012°59'0 0.0
2014-Jul-18 09:18N 40°55' E 012°59'0 0.0
2014-Jul-18 06:09N 40°55' E 012°59'0 0.0
2014-Jul-18 05:06N 40°55' E 012°59'0 0.0
2014-Jul-18 04:06N 40°55' E 012°59'0 0.0
2014-Jul-18 03:27N 40°55' E 012°59'0 0.0
2014-Jul-18 02:33N 40°55' E 012°59'0 0.0
2014-Jul-18 01:06N 40°55' E 012°59'17 3.7
2014-Jul-17 20:31N 40°47' E 013°19'1515.8
2014-Jul-17 19:33N 40°42' E 013°38'1616.0
2014-Jul-17 18:34N 40°38' E 013°58'1515.0
2014-Jul-17 17:33N 40°34' E 014°17'11 0.6
2014-Jul-16 23:29N 40°36' E 014°32'1414.8
2014-Jul-16 22:33N 40°34' E 014°14'0 0.1
2014-Jul-16 21:32N 40°34' E 014°14'0 0.0
2014-Jul-16 20:29N 40°34' E 014°14'0 0.0
2014-Jul-16 19:29N 40°34' E 014°14'0 0.0
2014-Jul-16 18:32N 40°34' E 014°14'2 0.7
2014-Jul-16 16:18N 40°32' E 014°14'0 0.0
2014-Jul-16 14:33N 40°32' E 014°14'6 0.2
2014-Jul-15 09:33N 40°33' E 014°22'7 0.9
2014-Jul-15 01:12N 40°37' E 014°30'0 0.0
2014-Jul-14 20:06N 40°37' E 014°30'0 0.0
2014-Jul-14 03:12N 40°37' E 014°30'5 8.2
2014-Jul-14 02:33N 40°32' E 014°32'135 3.3
2014-Jul-12 09:32N 38°24' E 015°30'12 9.1
2014-Jul-12 08:13N 38°14' E 015°37'8 7.9
2014-Jul-12 07:15N 38°06' E 015°36'  

Dump ship's entire track history